BEIDOU 16               
1 38953U 12059A   19258.91993574 -.00000185  00000-0  00000-0 0  9992
2 38953   1.2973  82.9624 0003948 187.7298 139.2139  1.00272860 25314
CZ-3C R/B               
1 38954U 12059B   19258.71604467  .00002444  00000-0  30905-3 0  9990
2 38954  20.2792   5.3522 6523457  85.5830 340.8691  3.30614777 72908